This demonstration page uses our WeatherBlox Daily Observations layout. Learn more.

Left ArrowRight Arrow

34.16533, -84.80231

Hourly Observations for October 6, 2019

Temp ( °F °C ) Dew Point ( °F °C ) Humidity (%) Winds ( mph kmh ) Pressure ( in mb ) Visibility ( mi km ) Precip ( " mm )
12:35 am 00:35 Cloudy 68 20 62 16.7 81 81 E 5 7 30.16 1021 10 16 0.00 0.00
12:53 am 00:53 Cloudy 68 20 61 16.1 78 78 VRB 7 11 30.14 1021 10 16 0.00 0.00
1:02 am 01:02 Cloudy 67 19.4 61 16.1 81 81 E 5 7 30.16 1021 10 16 0.00 0.00
1:53 am 01:53 Cloudy 67 19.4 60 15.6 79 79 ESE 8 13 30.15 1021 10 16 0.00 0.00
2:45 am 02:45 Cloudy 66 18.9 59 15 78 78 E 8 13 30.19 1022 10 16 0.00 0.00
2:53 am 02:53 Cloudy 65 18.3 59 15 81 81 ENE 7 11 30.16 1022 10 16 0.00 0.00
3:53 am 03:53 Cloudy 65 18.3 59 15 81 81 E 7 11 30.16 1021 10 16 0.00 0.00
4:53 am 04:53 Cloudy 65 18.3 59 15 81 81 E 5 7 30.16 1021 10 16 0.00 0.00
5:53 am 05:53 Cloudy 64 17.8 59 15 84 84 E 6 9 30.16 1021 10 16 0.00 0.00
6:53 am 06:53 Cloudy 64 17.8 59 15 84 84 VRB 5 7 30.16 1022 10 16 0.00 0.00
7:53 am 07:53 Cloudy 65 18.3 59 15 81 81 ESE 6 9 30.18 1022 10 16 0.00 0.00
8:53 am 08:53 Cloudy 65 18.3 60 15.6 84 84 E 7 11 30.19 1022 10 16 0.00 0.00
9:53 am 09:53 Cloudy 67 19.4 60 15.6 79 79 E 5 7 30.20 1023 10 16 0.00 0.00
10:53 am 10:53 Cloudy 67 19.4 60 15.6 79 79 SE 9 15 30.22 1023 10 16 0.00 0.00
11:53 am 11:53 Cloudy 68 20 61 16.1 78 78 VRB 3 6 30.22 1023 10 16 0.00 0.00
12:35 pm 12:35 Cloudy 70 21.1 61 16.1 73 73 E 6 9 30.22 1023 10 16 0.00 0.00
12:53 pm 12:53 Cloudy 71 21.7 62 16.7 73 73 ESE 5 7 30.21 1023 10 16 0.00 0.00
1:32 pm 13:32 Mostly Cloudy 76 24.4 63 17.2 64 64 SE 6 9 30.19 1022 10 16 0.00 0.00
1:53 pm 13:53 Mostly Sunny 75 23.9 63 17.2 66 66 VRB 5 7 30.18 1022 10 16 0.00 0.00
2:18 pm 14:18 Mostly Cloudy 76 24.4 63 17.2 64 64 ESE 6 9 30.17 1022 10 16 0.00 0.00
2:53 pm 14:53 Cloudy 79 26.1 64 17.8 60 60 E 8 13 30.15 1021 10 16 0.00 0.00
3:10 pm 15:10 Partly Cloudy 77 25 64 17.8 64 64 SE 6 9 30.15 1021 10 16 0.00 0.00
3:53 pm 15:53 Mostly Cloudy 79 26.1 64 17.8 60 60 ESE 7 11 30.13 1020 10 16 0.00 0.00
4:37 pm 16:37 Partly Cloudy 80 26.7 65 18.3 60 60 VRB 7 11 30.11 1020 10 16 0.00 0.00
4:53 pm 16:53 Mostly Cloudy 80 26.7 65 18.3 60 60 SSE 9 15 30.11 1020 10 16 0.00 0.00
5:53 pm 17:53 Mostly Cloudy 78 25.6 65 18.3 64 64 E 6 9 30.10 1019 10 16 0.00 0.00
6:53 pm 18:53 Mostly Sunny 76 24.4 64 17.8 67 67 E 6 9 30.11 1020 10 16 0.00 0.00
7:53 pm 19:53 Clear 74 23.3 64 17.8 71 71 Calm 30.12 1020 10 16 0.00 0.00
8:53 pm 20:53 Partly Cloudy 72 22.2 64 17.8 76 76 Calm 30.12 1020 10 16 0.00 0.00
9:53 pm 21:53 Partly Cloudy 72 22.2 64 17.8 76 76 E 6 9 30.13 1020 10 16 0.00 0.00
10:53 pm 22:53 Clear 70 21.1 64 17.8 82 82 Calm 30.13 1020 10 16 0.00 0.00
11:53 pm 23:53 Clear 70 21.1 64 17.8 82 82 VRB 6 9 30.11 1020 10 16 0.00 0.00

Powered by AerisWeather